sat.trackr.live / text

‹ back to catalog

MAKERSAT 0

NORAD 43016 · 2017-073D

PAYLOAD ACTIVE UNKNOWN

§ Identity

Operator
Country
US
Launch date
2017-11-18
Launch site
AFWTR
Launch vehicle
Mass (kg)
RCS (m²)

Purposes: tech_demo

External: N2YO · Heavens-Above · Gunter

§ Orbital elements

Epoch: 2026-05-24T22:07:26.913792Z

Period
94.05 min
Inclination
97.4663°
Eccentricity
0.0109161
Mean motion
15.31025443 rev/d
Perigee alt
398.0 km
Apogee alt
547.5 km
Semi-major
6,850.9 km
B*
6.2683e-4
RAAN
27.2720°
Arg perigee
356.9350°
Mean anomaly
3.1208°
Rev number
46,290

§ Raw data

MAKERSAT 01 43016U 17073D   26144.92183928  .00022579  00000+0  62683-3 0  99932 43016  97.4663  27.2720 0109161 356.9350   3.1208 15.31025443462903

JSON: /api/v1/satellites/43016 · /tle

For live sub-satellite position, see the globe view (requires WebGL).

§ Visibility from observer

Set your observer location to see the next 7 days of passes ≥ 10°. The values pass through the URL so the page stays shareable.

No JS? Fill the form by hand. The geolocation button needs JavaScript.